Tracking 25963 objects as of 13-Aug-2022
HD Live streaming from Space Station
objects crossing your sky now

STARLINK-4353

Track STARLINK-4353 now!
10-day predictions
STARLINK-4353 is classified as:


NORAD ID: 53214
Int'l Code: 2022-084AB
Perigee: 419.1 km
Apogee: 421.1 km
Inclination: 97.7 °
Period: 92.8 minutes
Semi major axis: 6791 km
RCS: Unknown
Launch date: July 22, 2022
Source: United States (US)
Launch site: AIR FORCE WESTERN TEST RANGE (AFWTR)
aabbcc
Your satellite tracking list
Your tracking list is empty




NASA's NSSDC Master Catalog

Two Line Element Set (TLE):
1 53214U 22084AB  22224.83335648 -.00047262  00000-0 -80992-3 0  9997
2 53214  97.6559 284.0996 0001501 106.9771  27.6522 15.51290569  3846
Source of the keplerian elements: AFSPC